W7KKE-3 Weather Reports


Display with metric or nautical units.
time (UTC)temp
F
wind
direction
speed
MPH
gust
MPH
rain 1hr
in
rain 24hr
in
rain mn
in
humidity
%
barometer
mb
20260901183825 62 180 5.0 14.0 0.00 0.04 0.04 87 1008.4
20260901183325 61 194 5.0 13.0 0.00 0.04 0.04 88 1008.3
20260901182825 61 169 6.0 13.0 0.00 0.04 0.04 87 1008.3
20260901182325 61 203 6.0 13.0 0.00 0.04 0.04 88 1008.2
20260901181825 61 194 8.0 11.0 0.00 0.04 0.04 88 1008.2
20260901181328 62 138 5.0 11.0 0.00 0.04 0.04 88 1008.2
20260901180825 62 180 5.0 11.0 0.00 0.04 0.04 88 1008.2
20260901180325 62 257 4.0 11.0 0.00 0.04 0.04 88 1008.2
20260901175826 62 190 5.0 11.0 0.00 0.04 0.04 88 1008.2
20260901175325 62 225 4.0 11.0 0.00 0.04 0.04 88 1008.3
20260901174825 62 253 3.0 10.0 0.00 0.04 0.04 88 1008.2
20260901174326 62 236 5.0 7.0 0.00 0.04 0.04 88 1008.2
20260901173825 63 249 3.0 9.0 0.00 0.04 0.04 88 1008.1
20260901173418 63 235 2.0 9.0 0.00 0.04 0.04 88 1008.0
20260901173325 63 235 2.0 9.0 0.00 0.04 0.04 88 1008.0
20260901172826 64 246 2.0 9.0 0.00 0.04 0.04 88 1008.0
20260901172325 64 190 2.0 10.0 0.00 0.04 0.04 89 1007.9
20260901171825 64 207 3.0 10.0 0.00 0.04 0.04 90 1007.8
20260901171326 63 203 2.0 10.0 0.00 0.04 0.04 90 1007.8
20260901170825 63 214 6.0 7.0 0.00 0.04 0.04 90 1007.8
20260901170325 63 191 4.0 6.0 0.00 0.04 0.04 90 1007.8
20260901165826 62 196 1.0 5.0 0.00 0.04 0.04 90 1007.8
20260901165325 62 201 1.0 5.0 0.00 0.04 0.04 90 1007.8
20260901164825 62 222 3.0 5.0 0.00 0.04 0.04 90 1007.8
20260901164326 61 194 0.0 4.0 0.00 0.04 0.04 90 1007.9
20260901163825 61 204 1.0 4.0 0.00 0.04 0.04 89 1007.9
20260901163325 61 162 1.0 3.0 0.00 0.04 0.04 90 1008.0
20260901162826 61 0 1.0 2.0 0.01 0.04 0.04 90 1007.9
20260901162325 61 156 0.0 2.0 0.01 0.04 0.04 90 1008.0
20260901161825 61 187 0.0 1.0 0.01 0.04 0.04 90 1008.0
20260901161326 61 196 0.0 0.0 0.01 0.04 0.04 90 1008.0
20260901160825 61 211 0.0 8.0 0.02 0.04 0.04 90 1008.0
20260901160325 61 196 0.0 8.0 0.02 0.04 0.04 90 1008.0
20260901155826 61 201 4.0 8.0 0.03 0.04 0.04 89 1007.9
20260901155325 61 194 3.0 3.0 0.03 0.04 0.04 89 1007.9
20260901154825 61 0 0.0 0.0 0.03 0.04 0.04 89 1008.0
20260901154326 60 0 0.0 0.0 0.03 0.04 0.04 89 1008.0
20260901153825 60 210 0.0 6.0 0.03 0.04 0.04 89 1008.0
20260901153325 60 246 0.0 6.0 0.03 0.04 0.04 89 1008.0
20260901152827 60 193 1.0 6.0 0.02 0.04 0.04 89 1007.9
20260901152325 60 229 4.0 5.0 0.02 0.03 0.03 89 1008.0
20260901151825 60 217 1.0 5.0 0.02 0.03 0.03 89 1008.0
20260901151326 60 222 2.0 5.0 0.02 0.03 0.03 89 1008.0
20260901150825 60 233 1.0 4.0 0.01 0.03 0.03 89 1008.0
20260901150325 60 249 2.0 2.0 0.01 0.02 0.02 89 1007.9
20260901145825 60 218 0.0 3.0 0.00 0.02 0.02 89 1007.9
20260901144825 60 81 0.0 3.0 0.00 0.01 0.01 89 1007.9
20260901144326 60 92 2.0 3.0 0.00 0.01 0.01 89 1007.8
20260901143825 60 93 0.0 3.0 0.00 0.01 0.01 89 1007.8
20260901143325 60 79 1.0 4.0 0.00 0.01 0.01 89 1007.8
20260901142826 60 89 1.0 4.0 0.00 0.01 0.01 89 1007.8
20260901142325 60 93 0.0 4.0 0.00 0.01 0.01 89 1007.7
20260901141825 60 92 3.0 3.0 0.01 0.01 0.01 89 1007.6
20260901141326 60 82 0.0 3.0 0.01 0.01 0.01 89 1007.6
20260901140325 60 85 1.0 3.0 0.01 0.01 0.01 89 1007.5
20260901135826 60 98 0.0 3.0 0.01 0.01 0.01 89 1007.5
20260901135325 60 131 0.0 3.0 0.01 0.01 0.01 89 1007.4
20260901134825 60 127 0.0 1.0 0.01 0.01 0.01 89 1007.4
20260901134326 60 106 1.0 1.0 0.01 0.01 0.01 89 1007.4
20260901133825 60 341 0.0 5.0 0.01 0.01 0.01 89 1007.4
20260901133325 60 57 0.0 5.0 0.01 0.01 0.01 89 1007.4
20260901132826 60 131 0.0 5.0 0.01 0.01 0.01 89 1007.3
20260901132325 60 100 2.0 4.0 0.01 0.01 0.01 88 1007.3
20260901131825 60 169 1.0 3.0 0.00 0.01 0.01 88 1007.3
20260901131326 60 208 1.0 4.0 0.00 0.01 0.01 88 1007.2
20260901130825 60 187 0.0 4.0 0.00 0.00 0.00 88 1007.2
20260901130325 60 200 0.0 4.0 0.00 0.00 0.00 88 1007.3
20260901125825 60 135 1.0 3.0 0.00 0.00 0.00 88 1007.4
20260901125325 60 163 0.0 2.0 0.00 0.00 0.00 88 1007.4
20260901124825 60 194 1.0 1.0 0.00 0.00 0.00 88 1007.3
20260901124326 60 109 0.0 1.0 0.00 0.00 0.00 88 1007.3
20260901123825 60 0 0.0 4.0 0.00 0.00 0.00 88 1007.3
20260901123325 60 257 0.0 4.0 0.00 0.00 0.00 88 1007.3
20260901122825 60 232 1.0 4.0 0.00 0.00 0.00 88 1007.2
20260901122325 60 78 0.0 1.0 0.00 0.00 0.00 88 1007.2
20260901121825 60 57 0.0 4.0 0.00 0.00 0.00 88 1007.2
20260901121326 60 155 0.0 4.0 0.00 0.00 0.00 88 1007.4
20260901120825 60 156 1.0 4.0 0.00 0.00 0.00 88 1007.4
20260901120325 60 196 1.0 8.0 0.00 0.00 0.00 88 1007.3
20260901115826 60 177 4.0 8.0 0.00 0.00 0.00 88 1007.4
20260901115325 60 222 0.0 8.0 0.00 0.00 0.00 88 1007.4
20260901114825 60 207 3.0 8.0 0.00 0.00 0.00 88 1007.4
20260901114326 60 201 2.0 10.0 0.00 0.00 0.00 88 1007.4
20260901113825 60 194 2.0 10.0 0.00 0.00 0.00 88 1007.4
20260901113326 60 194 3.0 10.0 0.00 0.00 0.00 88 1007.5
20260901112826 60 175 6.0 7.0 0.00 0.00 0.00 87 1007.5
20260901111825 60 211 5.0 5.0 0.00 0.00 0.00 88 1007.5
20260901111326 60 197 0.0 4.0 0.00 0.00 0.00 87 1007.5
20260901110825 60 247 0.0 1.0 0.00 0.00 0.00 87 1007.5
20260901110325 60 0 0.0 0.0 0.00 0.00 0.00 87 1007.5
20260901105825 60 0 0.0 0.0 0.00 0.00 0.00 87 1007.5
20260901105325 60 0 0.0 0.0 0.00 0.00 0.00 87 1007.5
20260901104826 60 0 0.0 0.0 0.00 0.00 0.00 87 1007.5
20260901104326 60 0 0.0 0.0 0.00 0.00 0.00 87 1007.5
20260901103825 60 0 0.0 0.0 0.00 0.00 0.00 87 1007.5
20260901103325 60 0 0.0 2.0 0.00 0.00 0.00 87 1007.5
20260901102826 60 0 0.0 2.0 0.00 0.00 0.00 87 1007.4
20260901102325 60 210 0.0 2.0 0.00 0.00 0.00 87 1007.4
20260901101326 60 0 0.0 0.0 0.00 0.00 0.00 87 1007.4
20260901100825 60 0 0.0 3.0 0.00 0.00 0.00 87 1007.4
20260901100325 60 197 0.0 3.0 0.00 0.00 0.00 87 1007.4
20260901095826 60 201 0.0 3.0 0.00 0.00 0.00 87 1007.4
20260901095325 60 126 0.0 3.0 0.00 0.00 0.00 87 1007.4
20260901094825 60 201 0.0 7.0 0.00 0.00 0.00 87 1007.5
20260901094326 60 200 0.0 7.0 0.00 0.00 0.00 87 1007.4
20260901093825 60 179 3.0 7.0 0.00 0.00 0.00 87 1007.5
20260901093325 60 210 0.0 8.0 0.00 0.00 0.00 87 1007.4
20260901092826 60 210 2.0 8.0 0.00 0.00 0.00 87 1007.4
20260901092325 60 210 1.0 8.0 0.00 0.00 0.00 87 1007.4
20260901091825 60 217 2.0 9.0 0.00 0.00 0.00 87 1007.5
20260901091326 60 205 4.0 9.0 0.00 0.00 0.00 87 1007.5
20260901090825 60 198 4.0 9.0 0.00 0.00 0.00 87 1007.5
20260901090325 60 201 6.0 6.0 0.00 0.00 0.00 87 1007.6
20260901085826 60 218 1.0 6.0 0.00 0.00 0.00 87 1007.6
20260901085325 60 208 4.0 4.0 0.00 0.00 0.00 87 1007.5
20260901084825 60 191 1.0 4.0 0.00 0.00 0.00 87 1007.5
20260901084326 60 201 1.0 4.0 0.00 0.00 0.00 87 1007.5
20260901083825 60 210 2.0 4.0 0.00 0.00 0.00 87 1007.5
20260901083325 60 175 1.0 7.0 0.00 0.00 0.00 87 1007.6
20260901082826 60 161 1.0 7.0 0.00 0.00 0.00 87 1007.6
20260901082325 60 201 1.0 7.0 0.00 0.00 0.00 86 1007.6
20260901081825 60 187 5.0 6.0 0.00 0.00 0.00 86 1007.7
20260901081326 60 196 2.0 9.0 0.00 0.00 0.00 86 1007.6
20260901080825 60 187 2.0 9.0 0.00 0.00 0.00 86 1007.6
20260901080325 60 187 4.0 9.0 0.00 0.00 0.00 86 1007.6
20260901075826 60 215 5.0 8.0 0.00 0.00 0.00 86 1007.6
20260901075325 60 189 2.0 8.0 0.00 0.00 0.00 86 1007.6
20260901074825 60 194 3.0 8.0 0.00 0.00 0.00 86 1007.7
20260901074326 60 189 4.0 10.0 0.00 0.00 0.00 86 1007.6
20260901073825 61 211 3.0 10.0 0.00 0.00 0.00 86 1007.5
20260901073325 61 196 3.0 10.0 0.00 0.00 0.00 86 1007.5
20260901072826 61 196 4.0 8.0 0.00 0.00 0.00 86 1007.5
20260901072325 61 205 6.0 11.0 0.00 0.00 0.00 86 1007.5
20260901071825 61 211 5.0 11.0 0.00 0.00 0.00 86 1007.5
20260901071326 60 189 5.0 11.0 0.00 0.00 0.00 86 1007.5
20260901070825 60 200 6.0 11.0 0.00 0.00 0.00 86 1007.5
20260901070325 60 187 4.0 11.0 0.00 0.00 0.00 86 1007.5
20260901065826 60 163 6.0 11.0 0.00 0.00 0.00 86 1007.5
20260901065325 60 180 4.0 10.0 0.00 0.00 0.00 86 1007.4
20260901064825 60 193 3.0 10.0 0.00 0.00 0.00 86 1007.4
20260901064326 60 186 5.0 10.0 0.00 0.00 0.00 86 1007.4
20260901063825 60 212 7.0 10.0 0.00 0.00 0.00 86 1007.4
20260901063325 61 201 4.0 8.0 0.00 0.00 0.00 86 1007.4
20260901062825 61 193 4.0 8.0 0.00 0.00 0.00 86 1007.4
20260901062325 61 177 4.0 8.0 0.00 0.00 0.00 85 1007.5
20260901061825 61 204 4.0 9.0 0.00 0.00 0.00 85 1007.5
20260901061326 60 204 2.0 9.0 0.00 0.00 0.00 85 1007.5
20260901060825 61 201 2.0 9.0 0.00 0.00 0.00 85 1007.6
20260901060325 61 205 2.0 9.0 0.00 0.00 0.00 85 1007.5
20260901055325 61 201 4.0 9.0 0.00 0.00 0.00 85 1007.5
20260901054825 61 189 5.0 8.0 0.00 0.00 0.00 85 1007.4
20260901054326 61 225 3.0 8.0 0.00 0.00 0.00 85 1007.4
20260901053826 61 221 3.0 7.0 0.00 0.00 0.00 84 1007.4
20260901053325 61 198 0.0 4.0 0.00 0.00 0.00 84 1007.5
20260901052826 61 225 0.0 4.0 0.00 0.00 0.00 84 1007.4
20260901052325 61 242 0.0 2.0 0.00 0.00 0.00 84 1007.5
20260901051825 61 295 0.0 2.0 0.00 0.00 0.00 84 1007.4
20260901051326 62 0 0.0 0.0 0.00 0.00 0.00 84 1007.4
20260901050825 62 0 0.0 0.0 0.00 0.00 0.00 84 1007.4
20260901050325 62 0 0.0 0.0 0.00 0.00 0.00 84 1007.4
20260901045826 62 0 0.0 0.0 0.00 0.00 0.00 84 1007.3
20260901045325 62 0 0.0 0.0 0.00 0.00 0.00 84 1007.3
20260901044825 62 0 0.0 0.0 0.00 0.00 0.00 84 1007.3
20260901044326 62 0 0.0 0.0 0.00 0.00 0.00 84 1007.3
20260901043825 62 0 0.0 0.0 0.00 0.00 0.00 84 1007.4
20260901043325 62 0 0.0 0.0 0.00 0.00 0.00 84 1007.4
20260901042825 62 0 0.0 2.0 0.00 0.00 0.00 84 1007.4
20260901042325 62 247 0.0 2.0 0.00 0.00 0.00 84 1007.4
20260901041825 62 235 0.0 2.0 0.00 0.00 0.00 83 1007.4
20260901041326 62 0 0.0 4.0 0.00 0.00 0.00 83 1007.4
20260901040825 62 257 0.0 4.0 0.00 0.00 0.00 83 1007.4
20260901040325 62 271 0.0 4.0 0.00 0.00 0.00 83 1007.3
20260901035826 62 0 0.0 0.0 0.00 0.00 0.00 83 1007.3
20260901035325 62 0 0.0 0.0 0.00 0.00 0.00 83 1007.2
20260901034825 62 0 0.0 0.0 0.00 0.00 0.00 83 1007.1
20260901034326 62 0 0.0 3.0 0.00 0.00 0.00 83 1007.1
20260901033825 62 0 0.0 3.0 0.00 0.00 0.00 83 1007.1
20260901033325 62 256 0.0 3.0 0.00 0.00 0.00 83 1007.0
20260901032826 62 329 3.0 6.0 0.00 0.00 0.00 83 1006.9
20260901032325 62 313 0.0 6.0 0.00 0.00 0.00 83 1006.8
20260901031825 62 7 1.0 6.0 0.00 0.00 0.00 83 1006.8
20260901031326 62 347 3.0 3.0 0.00 0.00 0.00 83 1006.7
20260901030826 63 0 0.0 0.0 0.00 0.00 0.00 83 1006.7
20260901030325 62 336 0.0 4.0 0.00 0.00 0.00 83 1006.7
20260901025826 62 317 0.0 4.0 0.00 0.00 0.00 83 1006.8
20260901025325 62 315 1.0 4.0 0.00 0.00 0.00 83 1006.8
20260901024825 62 7 2.0 3.0 0.00 0.00 0.00 83 1006.8
20260901024326 62 324 1.0 4.0 0.00 0.00 0.00 83 1006.8
20260901023825 62 344 1.0 4.0 0.00 0.00 0.00 83 1006.7
20260901023325 62 317 1.0 4.0 0.00 0.00 0.00 83 1006.6
20260901022826 62 327 2.0 9.0 0.00 0.00 0.00 83 1006.7
20260901022325 62 341 4.0 9.0 0.00 0.00 0.00 83 1006.6
20260901021828 62 330 6.0 9.0 0.00 0.00 0.00 83 1006.7
20260901021326 62 320 6.0 12.0 0.00 0.00 0.00 83 1006.6
20260901020825 62 333 7.0 12.0 0.00 0.00 0.00 83 1006.5
20260901020325 62 330 6.0 12.0 0.00 0.00 0.00 83 1006.6
20260901015826 62 315 8.0 11.0 0.00 0.00 0.00 82 1006.5
20260901015326 62 323 7.0 11.0 0.00 0.00 0.00 82 1006.4
20260901014825 63 313 8.0 13.0 0.00 0.00 0.00 82 1006.4
20260901014326 63 312 9.0 13.0 0.00 0.00 0.00 82 1006.2
20260901013825 63 324 6.0 13.0 0.00 0.00 0.00 82 1006.2
20260901013325 63 331 9.0 14.0 0.00 0.00 0.00 81 1006.2
20260901012826 63 326 8.0 14.0 0.00 0.00 0.00 81 1006.3
20260901012325 64 336 9.0 14.0 0.00 0.00 0.00 81 1006.2
20260901011825 64 326 6.0 10.0 0.00 0.00 0.00 81 1006.2
20260901011326 64 330 7.0 10.0 0.00 0.00 0.00 81 1006.3
20260901010918 64 302 4.0 9.0 0.00 0.00 0.00 81 1006.4
20260901010825 64 302 4.0 9.0 0.00 0.00 0.00 81 1006.4
20260901010325 64 305 6.0 9.0 0.00 0.00 0.00 80 1006.4
20260901005826 64 308 5.0 9.0 0.00 0.00 0.00 80 1006.5
20260901005325 65 317 6.0 9.0 0.00 0.00 0.00 80 1006.5
20260901004825 65 281 5.0 9.0 0.00 0.00 0.00 80 1006.5
20260901004326 65 295 6.0 9.0 0.00 0.00 0.00 79 1006.5
20260901003825 65 287 6.0 9.0 0.00 0.00 0.00 79 1006.5
20260901003325 66 287 7.0 9.0 0.00 0.00 0.00 79 1006.5
20260901002826 66 291 6.0 11.0 0.00 0.00 0.00 79 1006.5
20260901002325 66 277 7.0 11.0 0.00 0.00 0.00 79 1006.5
20260901001825 66 292 6.0 11.0 0.00 0.00 0.00 78 1006.4
20260901001326 66 301 6.0 11.0 0.00 0.00 0.00 78 1006.5
20260901000825 66 285 8.0 11.0 0.00 0.00 0.00 78 1006.5
20260901000325 66 285 7.0 11.0 0.00 0.00 0.00 78 1006.5
20260831235826 66 289 8.0 10.0 0.00 0.00 0.00 78 1006.5
20260831234825 67 292 6.0 10.0 0.00 0.00 0.00 78 1006.5
20260831233825 66 306 8.0 11.0 0.00 0.00 0.00 79 1006.4
20260831233325 66 287 7.0 11.0 0.00 0.00 0.00 79 1006.5
20260831232826 66 292 8.0 12.0 0.00 0.00 0.00 79 1006.4
20260831232325 66 317 8.0 12.0 0.00 0.00 0.00 78 1006.5
20260831231825 66 301 8.0 12.0 0.00 0.00 0.00 78 1006.5
20260831231326 66 302 9.0 11.0 0.00 0.00 0.00 78 1006.5
20260831230826 66 298 9.0 11.0 0.00 0.00 0.00 78 1006.5
20260831230325 66 288 9.0 11.0 0.00 0.00 0.00 78 1006.5
20260831225826 66 282 9.0 11.0 0.00 0.00 0.00 77 1006.4
20260831225325 67 301 8.0 10.0 0.00 0.00 0.00 77 1006.4
20260831224825 67 284 6.0 10.0 0.00 0.00 0.00 77 1006.3
20260831224326 67 292 7.0 10.0 0.00 0.00 0.00 77 1006.4
20260831223825 68 287 6.0 9.0 0.00 0.00 0.00 76 1006.3
20260831223325 68 298 6.0 9.0 0.00 0.00 0.00 76 1006.3
20260831222826 68 287 7.0 11.0 0.00 0.00 0.00 76 1006.3
20260831222325 68 268 7.0 11.0 0.00 0.00 0.00 76 1006.3
20260831221825 68 288 7.0 11.0 0.00 0.00 0.00 76 1006.3
20260831221326 68 285 7.0 11.0 0.00 0.00 0.00 75 1006.3
20260831220825 69 289 9.0 12.0 0.00 0.00 0.00 75 1006.3
20260831220325 69 291 7.0 12.0 0.00 0.00 0.00 75 1006.2
20260831215826 69 280 7.0 12.0 0.00 0.00 0.00 75 1006.2
20260831215325 69 288 8.0 12.0 0.00 0.00 0.00 75 1006.2
20260831214825 69 275 7.0 12.0 0.00 0.00 0.00 75 1006.2
20260831214326 69 281 8.0 12.0 0.00 0.00 0.00 75 1006.2
20260831213825 69 284 7.0 12.0 0.00 0.00 0.00 75 1006.2
20260831213325 69 288 6.0 10.0 0.00 0.00 0.00 75 1006.2
20260831212826 69 282 7.0 12.0 0.00 0.00 0.00 76 1006.3
20260831212325 69 309 7.0 12.0 0.00 0.00 0.00 75 1006.3
20260831211825 69 273 6.0 12.0 0.00 0.00 0.00 75 1006.4
20260831211326 69 301 5.0 10.0 0.00 0.00 0.00 76 1006.4
20260831210825 69 280 7.0 10.0 0.00 0.00 0.00 75 1006.3
20260831210326 69 296 7.0 9.0 0.00 0.00 0.00 75 1006.4
20260831205826 69 285 6.0 9.0 0.00 0.00 0.00 74 1006.4
20260831205325 69 299 4.0 10.0 0.00 0.00 0.00 75 1006.3
20260831204825 69 291 7.0 10.0 0.00 0.00 0.00 75 1006.3
20260831204326 69 287 6.0 10.0 0.00 0.00 0.00 74 1006.4
20260831203825 69 308 8.0 10.0 0.00 0.00 0.00 73 1006.4
20260831203325 70 281 7.0 10.0 0.00 0.00 0.00 73 1006.4
20260831202826 69 306 7.0 11.0 0.00 0.00 0.00 74 1006.5
20260831202325 69 303 8.0 11.0 0.00 0.00 0.00 74 1006.5
20260831201825 69 291 7.0 11.0 0.00 0.00 0.00 74 1006.6
20260831201326 69 322 7.0 9.0 0.00 0.00 0.00 74 1006.6
20260831200825 69 294 6.0 9.0 0.00 0.00 0.00 75 1006.6
20260831200325 69 317 6.0 7.0 0.00 0.00 0.00 75 1006.6
20260831195826 69 284 5.0 9.0 0.00 0.00 0.00 74 1006.5
20260831195325 69 333 6.0 9.0 0.00 0.00 0.00 75 1006.5
20260831194825 69 343 6.0 9.0 0.00 0.00 0.00 74 1006.6
20260831194326 69 331 6.0 8.0 0.00 0.00 0.00 74 1006.5
20260831193825 69 298 5.0 9.0 0.00 0.00 0.00 75 1006.6
20260831193325 69 309 6.0 9.0 0.00 0.00 0.00 74 1006.6
20260831192826 69 315 6.0 9.0 0.00 0.00 0.00 74 1006.6
20260831192325 69 298 8.0 10.0 0.00 0.00 0.00 75 1006.7
20260831191825 69 313 6.0 10.0 0.00 0.00 0.00 74 1006.6
20260831191326 69 277 6.0 10.0 0.00 0.00 0.00 74 1006.7
20260831190825 68 288 6.0 9.0 0.00 0.00 0.00 74 1006.8
20260831190325 69 298 6.0 9.0 0.00 0.00 0.00 74 1006.8
20260831185826 68 301 4.0 7.0 0.00 0.00 0.00 75 1007.0
20260831185325 68 287 5.0 7.0 0.00 0.00 0.00 75 1007.0
20260831184825 68 282 4.0 7.0 0.00 0.00 0.00 76 1007.0